CW0451 Weather Reports


time (UTC)temp
C
wind
direction
speed
KPH
gust
KPH
rain 1hr
cm
rain 24hr
cm
rain mn
cm
humidity
%
barometer
mb
20260505052102 10 207 6.4 14.5 0.00 0.00 0.00 89 1010.9
20260505051103 10 202 8.0 22.5 0.00 0.00 0.00 89 1010.9
20260505050124 10 193 8.0 14.5 0.00 0.00 0.00 88 1011.1
20260505041124 10 200 8.0 14.5 0.00 0.00 0.00 87 1011.2
20260505040103 10 191 8.0 16.1 0.00 0.00 0.00 87 1011.1
20260505035102 10 202 8.0 14.5 0.00 0.00 0.00 86 1011.2
20260505034103 10 201 8.0 14.5 0.00 0.00 0.00 86 1011.1
20260505033103 10 212 9.7 20.9 0.00 0.00 0.00 86 1011.1
20260505032102 10 201 8.0 16.1 0.00 0.00 0.00 86 1011.1
20260505031102 10 222 6.4 19.3 0.00 0.00 0.00 85 1011.1
20260505025103 10 214 9.7 17.7 0.00 0.00 0.00 84 1011.3
20260505024102 10 203 9.7 20.9 0.00 0.00 0.00 83 1011.3
20260505023103 10 209 8.0 22.5 0.00 0.00 0.00 83 1011.2
20260505022124 10 217 9.7 20.9 0.00 0.00 0.00 82 1011.4
20260505021103 11 220 6.4 19.3 0.00 0.00 0.00 82 1011.4
20260505015103 11 212 9.7 19.3 0.00 0.00 0.00 80 1011.3
20260505014124 11 214 11.3 22.5 0.00 0.00 0.00 79 1011.3
20260505013102 11 212 11.3 24.1 0.00 0.00 0.00 78 1011.3
20260505012103 12 215 8.0 24.1 0.00 0.00 0.00 78 1011.1
20260505011102 12 212 12.9 32.2 0.00 0.00 0.00 77 1010.9
20260505005102 12 216 12.9 30.6 0.00 0.00 0.00 75 1010.4
20260505004103 12 234 11.3 20.9 0.00 0.00 0.00 74 1010.4
20260505003103 12 227 8.0 29.0 0.00 0.00 0.00 73 1010.2
20260505002102 12 220 16.1 27.4 0.00 0.00 0.00 71 1009.9
20260505001103 13 225 12.9 27.4 0.00 0.00 0.00 70 1009.7
20260504235103 13 208 12.9 35.4 0.00 0.00 0.00 67 1009.4
20260504234103 13 226 19.3 33.8 0.00 0.00 0.00 66 1009.3
20260504233102 14 224 17.7 37.0 0.00 0.00 0.00 64 1009.2
20260504232103 14 227 17.7 40.2 0.00 0.00 0.00 62 1009.1
20260504231102 14 221 24.1 41.8 0.00 0.00 0.00 61 1008.9
20260504225102 15 221 16.1 38.6 0.00 0.00 0.00 61 1008.8
20260504224124 15 215 22.5 35.4 0.00 0.00 0.00 57 1008.7
20260504223103 16 209 12.9 38.6 0.00 0.00 0.00 56 1008.5
20260504222102 17 209 17.7 37.0 0.00 0.00 0.00 53 1008.4
20260504221104 17 215 19.3 37.0 0.00 0.00 0.00 54 1008.4
20260504215102 17 205 17.7 35.4 0.00 0.00 0.00 54 1008.3
20260504214103 17 210 20.9 43.5 0.00 0.00 0.00 54 1008.4
20260504213102 17 200 20.9 40.2 0.00 0.00 0.00 53 1008.3
20260504212123 17 216 19.3 43.5 0.00 0.00 0.00 54 1008.2
20260504211103 17 203 32.2 48.3 0.00 0.00 0.00 51 1008.1
20260504205124 18 192 25.7 43.5 0.00 0.00 0.00 51 1008.2
20260504204103 18 196 14.5 37.0 0.00 0.00 0.00 50 1008.1
20260504203102 18 197 24.1 41.8 0.00 0.00 0.00 49 1008.0
20260504202103 18 190 24.1 41.8 0.00 0.00 0.00 49 1008.0
20260504201102 18 191 24.1 41.8 0.00 0.00 0.00 49 1007.9
20260504195102 18 196 29.0 46.7 0.00 0.00 0.00 48 1008.1
20260504194102 19 201 22.5 45.1 0.00 0.00 0.00 46 1008.1
20260504193103 19 210 27.4 54.7 0.00 0.00 0.00 43 1008.1
20260504192102 19 234 22.5 45.1 0.00 0.00 0.00 43 1008.1
20260504191103 19 200 20.9 51.5 0.00 0.00 0.00 43 1008.1
20260504190123 20 203 25.7 38.6 0.00 0.00 0.00 40 1008.2
20260504185102 20 244 22.5 45.1 0.00 0.00 0.00 40 1008.2
20260504184124 20 205 20.9 37.0 0.00 0.00 0.00 40 1008.1
20260504183102 20 272 12.9 30.6 0.00 0.00 0.00 35 1008.3
20260504182103 20 254 16.1 33.8 0.00 0.00 0.00 36 1008.3
20260504181102 20 237 19.3 41.8 0.00 0.00 0.00 37 1008.5
20260504175103 20 243 20.9 49.9 0.00 0.00 0.00 36 1008.6
20260504174145 20 247 20.9 49.9 0.00 0.00 0.00 37 1008.3
20260504173102 20 247 16.1 45.1 0.00 0.00 0.00 36 1008.4
20260504172103 20 246 14.5 40.2 0.00 0.00 0.00 36 1008.6
20260504171102 20 243 11.3 43.5 0.00 0.00 0.00 37 1008.6
20260504151103 18 272 11.3 33.8 0.00 0.00 0.00 43 1009.8
20260504141103 17 246 11.3 29.0 0.00 0.03 0.00 46 1010.6
20260504130104 15 253 6.4 22.5 0.00 0.03 0.00 50 1011.1
20260504090123 6 248 4.8 12.9 0.00 0.03 0.00 70 1010.8
20260504081102 6 229 4.8 9.7 0.00 0.03 0.00 67 1010.8
20260504070124 4 243 1.6 4.8 0.00 0.03 0.00 81 1010.6